Location: Bishop�s Knoyle
(51.0728°N, 2.1714°W)
Time: 17:26:40
(UTC+00:00)

USA 234 - Pass Details

Date: 18 September 2020
Orbit: 1102 x 1106 km, 123.0° (Epoch: 16 October)

Event Time Altitude Azimuth Distance (km) Brightness Sun altitude
Rises 23:43:52 0° 76° (ENE) 3,923 6.3 -37.4°
Reaches altitude 10° 23:46:24 10° 72° (ENE) 2,965 5.6 -37.4°
Enters shadow 23:50:38 39° 48° (NE) 1,593 4.2 -37.5°
Exits shadow 23:54:28 43° 312° (NW) 1,517 4.1 -37.5°
Drops below altitude 10° 23:59:03 10° 283° (WNW) 2,966 5.6 -37.5°
Sets 00:01:34 0° 279° (W) 3,925 6.3 -37.5°
